Location: Newark
(31.5350°N, 35.0986°E)
Time: 01:51:34
(UTC+00:00)

Transit 4A - Pass Details

Date: 26 October 2019
Orbit: 868 x 976 km, 66.8° (Epoch: 11 November)

Event Time Altitude Azimuth Distance (km) Brightness Sun altitude
Rises 10:31:11 0° 333° (NNW) 3,514 10.6 43.2°
Reaches altitude 10° 10:33:43 10° 332° (NNW) 2,557 10.0 42.9°
Maximum altitude 10:39:36 78° 247° (WSW) 898 8.9 42.4°
Drops below altitude 10° 10:45:22 10° 162° (SSE) 2,504 10.8 41.9°
Sets 10:47:49 0° 160° (SSE) 3,436 11.3 41.6°
